• In Hungary
  • List of Countries
  • For 7 days
  • Water Temperature
  • Satellite Maps
  • Weather Map
  • News
  • Weather Widgets
  • user-avatar
    Login

    Hourly Weather Zon

    Today, 19 November, Sunday

    Time Temperature Precipitation Wind Pressure Humidity
    00:00 +1°C° 0 mm 6 mps 746 mmHg 82%
    01:00 +1°C° 0 mm 5 mps 746 mmHg 84%
    02:00 +1°C° 0 mm 5 mps 746 mmHg 84%
    03:00 +1°C° 0 mm 6 mps 746 mmHg 84%
    04:00 +1°C° 0 mm 6 mps 745 mmHg 84%
    05:00 +1°C° 0 mm 6 mps 745 mmHg 84%
    06:00 +1°C° 0 mm 6 mps 745 mmHg 83%
    07:00 +1°C° 0 mm 5 mps 744 mmHg 83%
    08:00 +1°C° 0 mm 5 mps 744 mmHg 82%
    09:00 +1°C° 0 mm 6 mps 744 mmHg 80%
    10:00 +2°C° 0 mm 7 mps 744 mmHg 79%
    11:00 +2°C° 0.2 mm 7 mps 744 mmHg 78%
    12:00 +2°C° 0.2 mm 7 mps 744 mmHg 78%
    13:00 +2°C° 0 mm 7 mps 743 mmHg 77%
    14:00 +2°C° 0.3 mm 7 mps 743 mmHg 78%
    15:00 +3°C° 0.3 mm 7 mps 743 mmHg 78%
    16:00 +3°C° 0.3 mm 7 mps 743 mmHg 79%
    17:00 +2°C° 0.1 mm 7 mps 743 mmHg 79%
    18:00 +2°C° 0.1 mm 6 mps 743 mmHg 78%
    19:00 +1°C° 0.1 mm 5 mps 743 mmHg 78%
    20:00 +1°C° 0.1 mm 6 mps 743 mmHg 78%
    21:00 +1°C° 0.1 mm 6 mps 743 mmHg 77%
    22:00 +1°C° 0.1 mm 6 mps 743 mmHg 77%
    23:00 0°C° 0.2 mm 7 mps 744 mmHg 78%

    Tomorrow, 20 November, Monday

    Time Temperature Precipitation Wind Pressure Humidity
    00:00 +2°C° 0.2 mm 7 mps 744 mmHg 80%
    01:00 +2°C° 0.2 mm 7 mps 745 mmHg 81%
    02:00 +2°C° 0.5 mm 7 mps 745 mmHg 80%
    03:00 +2°C° 0.5 mm 7 mps 746 mmHg 80%
    04:00 +2°C° 0.5 mm 7 mps 747 mmHg 79%
    05:00 0°C° 0 mm 7 mps 747 mmHg 79%
    06:00 +1°C° 0 mm 6 mps 748 mmHg 78%
    07:00 0°C° 0 mm 5 mps 748 mmHg 78%
    08:00 0°C° 0 mm 5 mps 749 mmHg 77%
    09:00 +1°C° 0 mm 5 mps 749 mmHg 76%
    10:00 +1°C° 0 mm 5 mps 750 mmHg 74%
    11:00 +2°C° 0 mm 5 mps 750 mmHg 74%
    12:00 +2°C° 0 mm 5 mps 750 mmHg 73%
    13:00 +2°C° 0 mm 5 mps 750 mmHg 73%
    14:00 +3°C° 0 mm 4 mps 750 mmHg 76%
    15:00 +3°C° 0 mm 4 mps 750 mmHg 78%
    16:00 +2°C° 0 mm 3 mps 750 mmHg 81%
    17:00 +2°C° 0 mm 3 mps 750 mmHg 84%
    18:00 +2°C° 0 mm 3 mps 750 mmHg 86%
    19:00 +1°C° 0 mm 3 mps 750 mmHg 89%
    20:00 +2°C° 0 mm 2 mps 750 mmHg 90%
    21:00 +2°C° 0 mm 2 mps 750 mmHg 91%
    22:00 +2°C° 0 mm 2 mps 750 mmHg 93%
    23:00 +3°C° 0 mm 1 mps 750 mmHg 93%

    Day after tomorrow, 21 November, Tuesday

    Time Temperature Precipitation Wind Pressure Humidity
    00:00 +3°C° 0 mm 1 mps 750 mmHg 94%
    01:00 +3°C° 0 mm 1 mps 749 mmHg 95%
    02:00 +2°C° 0 mm 1 mps 749 mmHg 95%
    03:00 +2°C° 0 mm 1 mps 749 mmHg 95%
    04:00 +2°C° 0 mm 1 mps 748 mmHg 95%
    05:00 +2°C° 0 mm 1 mps 749 mmHg 95%
    06:00 +2°C° 0 mm 1 mps 749 mmHg 95%
    07:00 +2°C° 0 mm 1 mps 749 mmHg 95%
    08:00 +3°C° 0 mm 1 mps 749 mmHg 93%
    09:00 +3°C° 0 mm 1 mps 749 mmHg 90%
    10:00 +4°C° 0 mm 1 mps 749 mmHg 88%
    11:00 +4°C° 0 mm 1 mps 749 mmHg 85%
    12:00 +5°C° 0 mm 1 mps 750 mmHg 82%
    13:00 +4°C° 0 mm 0 mps 750 mmHg 80%
    14:00 +5°C° 0 mm 1 mps 750 mmHg 82%
    15:00 +4°C° 0 mm 1 mps 750 mmHg 85%
    16:00 +4°C° 0 mm 1 mps 750 mmHg 87%
    17:00 +3°C° 0 mm 1 mps 751 mmHg 88%
    18:00 +3°C° 0 mm 1 mps 751 mmHg 89%
    19:00 +2°C° 0 mm 1 mps 752 mmHg 90%
    20:00 +2°C° 0 mm 1 mps 752 mmHg 91%
    21:00 +2°C° 0 mm 1 mps 753 mmHg 91%
    22:00 +2°C° 0 mm 1 mps 753 mmHg 91%
    23:00 +2°C° 0 mm 1 mps 753 mmHg 92%

    22 November, Wednesday

    Time Temperature Precipitation Wind Pressure Humidity
    00:00 +1°C° 0 mm 1 mps 753 mmHg 92%
    01:00 -1°C° 0 mm 2 mps 753 mmHg 92%
    02:00 +1°C° 0 mm 2 mps 753 mmHg 92%
    03:00 0°C° 0 mm 3 mps 753 mmHg 91%
    04:00 0°C° 0 mm 3 mps 752 mmHg 91%
    05:00 0°C° 0.2 mm 3 mps 752 mmHg 89%
    06:00 0°C° 0.2 mm 4 mps 752 mmHg 88%
    07:00 0°C° 0.2 mm 4 mps 752 mmHg 86%
    08:00 0°C° 0.2 mm 5 mps 752 mmHg 86%
    09:00 +1°C° 0.2 mm 5 mps 751 mmHg 86%
    10:00 +1°C° 0.2 mm 6 mps 751 mmHg 87%
    11:00 +2°C° 0.1 mm 5 mps 751 mmHg 88%
    12:00 +2°C° 0.1 mm 5 mps 751 mmHg 89%
    13:00 +4°C° 0.1 mm 4 mps 750 mmHg 90%
    14:00 +4°C° 0.1 mm 4 mps 750 mmHg 91%
    15:00 +4°C° 0.1 mm 3 mps 751 mmHg 93%
    16:00 +4°C° 0.1 mm 3 mps 751 mmHg 94%
    17:00 +4°C° 0 mm 3 mps 751 mmHg 94%
    18:00 +4°C° 0 mm 3 mps 751 mmHg 94%
    19:00 +4°C° 0 mm 3 mps 751 mmHg 95%
    20:00 +4°C° 0 mm 3 mps 751 mmHg 95%
    21:00 +4°C° 0 mm 3 mps 751 mmHg 95%
    22:00 +3°C° 0 mm 3 mps 752 mmHg 95%
    23:00 +3°C° 0 mm 3 mps 752 mmHg 94%

    23 November, Thursday

    Time Temperature Precipitation Wind Pressure Humidity
    00:00 +3°C° 0 mm 3 mps 752 mmHg 94%
    01:00 +3°C° 0 mm 3 mps 752 mmHg 94%
    02:00 +3°C° 0 mm 3 mps 752 mmHg 93%
    03:00 +3°C° 0 mm 3 mps 752 mmHg 92%
    04:00 +3°C° 0 mm 4 mps 751 mmHg 91%
    05:00 +3°C° 0 mm 4 mps 751 mmHg 89%
    06:00 +3°C° 0 mm 4 mps 751 mmHg 87%
    07:00 +3°C° 0 mm 4 mps 751 mmHg 85%
    08:00 +4°C° 0 mm 4 mps 752 mmHg 81%
    09:00 +5°C° 0 mm 5 mps 752 mmHg 77%
    10:00 +6°C° 0 mm 5 mps 752 mmHg 73%
    11:00 +7°C° 0 mm 5 mps 752 mmHg 71%
    12:00 +8°C° 0 mm 5 mps 753 mmHg 69%
    13:00 +9°C° 0 mm 5 mps 753 mmHg 67%
    14:00 +8°C° 0 mm 4 mps 753 mmHg 72%
    15:00 +7°C° 0 mm 4 mps 753 mmHg 76%
    16:00 +7°C° 0 mm 4 mps 754 mmHg 81%
    17:00 +7°C° 0 mm 4 mps 754 mmHg 83%
    18:00 +7°C° 0 mm 4 mps 754 mmHg 85%
    19:00 +7°C° 0 mm 3 mps 755 mmHg 87%
    20:00 +7°C° 0 mm 3 mps 755 mmHg 88%
    21:00 +7°C° 0 mm 3 mps 755 mmHg 89%
    22:00 +7°C° 0 mm 3 mps 756 mmHg 90%
    23:00 +7°C° 0 mm 3 mps 756 mmHg 91%

    24 November, Friday

    Time Temperature Precipitation Wind Pressure Humidity
    00:00 +7°C° 0 mm 3 mps 756 mmHg 91%
    01:00 +5°C° 0 mm 3 mps 756 mmHg 92%
    02:00 +5°C° 0 mm 3 mps 756 mmHg 91%
    03:00 +5°C° 0 mm 3 mps 756 mmHg 91%
    04:00 +5°C° 0 mm 3 mps 756 mmHg 90%
    05:00 +7°C° 0 mm 3 mps 756 mmHg 90%
    06:00 +7°C° 0 mm 3 mps 756 mmHg 89%
    07:00 +7°C° 0 mm 3 mps 756 mmHg 88%
    08:00 +7°C° 0 mm 3 mps 756 mmHg 85%
    09:00 +8°C° 0 mm 3 mps 756 mmHg 81%
    10:00 +8°C° 0 mm 3 mps 757 mmHg 77%
    11:00 +9°C° 0 mm 3 mps 757 mmHg 75%
    12:00 +10°C° 0 mm 3 mps 756 mmHg 73%
    13:00 +10°C° 0 mm 3 mps 756 mmHg 71%
    14:00 +9°C° 0 mm 3 mps 756 mmHg 74%
    15:00 +9°C° 0 mm 2 mps 756 mmHg 77%
    16:00 +8°C° 0 mm 2 mps 756 mmHg 80%
    17:00 +8°C° 0 mm 2 mps 756 mmHg 80%
    18:00 +7°C° 0 mm 2 mps 757 mmHg 79%
    19:00 +7°C° 0 mm 2 mps 757 mmHg 79%
    20:00 +7°C° 0 mm 2 mps 757 mmHg 79%
    21:00 +7°C° 0 mm 2 mps 757 mmHg 78%
    22:00 +7°C° 0 mm 2 mps 757 mmHg 77%
    23:00 +6°C° 0 mm 2 mps 757 mmHg 77%
    Show more